Time,TemperatureF,DewpointF,PressureIn,WindDirection,WindDirectionDegrees,WindSpeedMPH,WindSpeedGustMPH,Humidity,HourlyPrecipIn,Conditions,Clouds,dailyrainin,SoftwareType,DateUTC
2013-02-13 00:03:00,39.0,38.7,29.42,NNW,333,0.0,0.0,34,0.00,,,0.00,meteohub,2013-02-13 06:03:00,
2013-02-13 00:08:00,38.8,37.8,29.42,NNW,333,0.0,0.0,33,0.00,,,0.00,meteohub,2013-02-13 06:08:00,
2013-02-13 00:13:00,38.8,38.5,29.42,NNW,333,0.0,0.0,34,0.00,,,0.00,meteohub,2013-02-13 06:13:00,
2013-02-13 00:18:00,38.8,38.5,29.42,NNW,333,0.0,0.0,34,0.00,,,0.00,meteohub,2013-02-13 06:18:00,
2013-02-13 00:23:00,38.7,38.5,29.42,NNW,333,0.0,0.0,34,0.00,,,0.00,meteohub,2013-02-13 06:23:00,
2013-02-13 00:28:00,38.7,38.3,29.42,NNW,333,0.0,0.0,34,0.00,,,0.00,meteohub,2013-02-13 06:28:00,
2013-02-13 00:34:00,38.7,38.3,29.42,NNW,333,0.0,0.0,34,0.00,,,0.00,meteohub,2013-02-13 06:34:00,
2013-02-13 00:39:00,38.7,38.1,29.42,NNW,333,0.0,0.0,34,0.00,,,0.00,meteohub,2013-02-13 06:39:00,
2013-02-13 00:44:00,38.5,38.1,29.42,NNW,333,0.0,0.0,34,0.00,,,0.00,meteohub,2013-02-13 06:44:00,
2013-02-13 00:49:00,38.5,38.1,29.42,NNW,333,0.0,0.0,34,0.00,,,0.00,meteohub,2013-02-13 06:49:00,
2013-02-13 00:54:00,38.5,37.9,29.42,NNW,333,0.0,0.0,34,0.00,,,0.00,meteohub,2013-02-13 06:54:00,
2013-02-13 00:59:00,38.5,37.9,29.42,NNW,333,0.0,0.0,34,0.00,,,0.00,meteohub,2013-02-13 06:59:00,
2013-02-13 01:04:00,38.5,37.9,29.42,NNW,333,0.0,0.0,34,0.00,,,0.00,meteohub,2013-02-13 07:04:00,
2013-02-13 01:09:00,38.5,37.9,29.42,NNW,333,0.0,0.0,34,0.00,,,0.00,meteohub,2013-02-13 07:09:00,
2013-02-13 01:14:00,38.7,37.8,29.42,NNW,333,0.0,0.0,34,0.00,,,0.00,meteohub,2013-02-13 07:14:00,
2013-02-13 01:19:00,38.7,37.8,29.42,NNW,333,0.0,0.0,34,0.00,,,0.00,meteohub,2013-02-13 07:19:00,
2013-02-13 01:24:00,38.7,37.6,29.42,NNW,333,0.0,0.0,34,0.00,,,0.00,meteohub,2013-02-13 07:24:00,
2013-02-13 01:30:00,38.7,37.6,29.42,NNW,333,0.0,0.0,34,0.00,,,0.00,meteohub,2013-02-13 07:30:00,
2013-02-13 01:35:00,38.7,37.4,29.42,NNW,333,0.0,0.0,34,0.00,,,0.00,meteohub,2013-02-13 07:35:00,
2013-02-13 01:40:00,38.7,37.4,29.42,NNW,333,0.0,0.0,34,0.00,,,0.00,meteohub,2013-02-13 07:40:00,
2013-02-13 01:45:00,38.5,37.4,29.42,NNW,329,0.0,0.0,34,0.00,,,0.00,meteohub,2013-02-13 07:45:00,
2013-02-13 01:50:00,38.7,37.4,29.39,SSW,201,0.0,0.0,34,0.00,,,0.00,meteohub,2013-02-13 07:50:00,
2013-02-13 01:55:00,38.7,37.2,29.39,SSW,194,0.0,0.0,34,0.00,,,0.00,meteohub,2013-02-13 07:55:00,
2013-02-13 02:00:00,38.8,37.2,29.39,South,191,3.0,3.0,34,0.00,,,0.00,meteohub,2013-02-13 08:00:00,
2013-02-13 02:05:00,38.8,37.0,29.39,South,191,3.0,3.0,34,0.00,,,0.00,meteohub,2013-02-13 08:05:00,
2013-02-13 02:11:00,39.0,37.0,29.39,South,191,0.0,3.0,34,0.00,,,0.00,meteohub,2013-02-13 08:11:00,
2013-02-13 02:16:00,38.8,37.0,29.39,South,191,0.0,3.0,34,0.00,,,0.00,meteohub,2013-02-13 08:16:00,
2013-02-13 02:21:00,38.8,36.9,29.39,South,191,0.0,3.0,34,0.00,,,0.00,meteohub,2013-02-13 08:21:00,
2013-02-13 02:26:00,38.8,36.9,29.39,South,191,0.0,0.0,34,0.00,,,0.00,meteohub,2013-02-13 08:26:00,
2013-02-13 02:31:00,38.7,36.7,29.39,South,191,0.0,0.0,34,0.00,,,0.00,meteohub,2013-02-13 08:31:00,
2013-02-13 02:36:00,38.7,36.7,29.39,South,191,0.0,0.0,34,0.00,,,0.00,meteohub,2013-02-13 08:36:00,
2013-02-13 02:41:00,38.7,36.7,29.39,South,191,0.0,3.0,34,0.00,,,0.00,meteohub,2013-02-13 08:41:00,
2013-02-13 02:46:00,38.7,36.5,29.39,South,191,0.0,3.0,34,0.00,,,0.00,meteohub,2013-02-13 08:46:00,
2013-02-13 02:51:00,38.7,36.5,29.39,South,191,0.0,3.0,34,0.00,,,0.00,meteohub,2013-02-13 08:51:00,
2013-02-13 02:57:00,38.5,36.3,29.39,South,191,0.0,0.0,34,0.00,,,0.00,meteohub,2013-02-13 08:57:00,
2013-02-13 03:02:00,38.5,36.3,29.39,South,191,0.0,0.0,34,0.00,,,0.00,meteohub,2013-02-13 09:02:00,
2013-02-13 03:07:00,38.3,36.3,29.39,South,191,0.0,0.0,34,0.00,,,0.00,meteohub,2013-02-13 09:07:00,
2013-02-13 03:12:00,38.1,36.3,29.39,South,191,0.0,0.0,34,0.00,,,0.00,meteohub,2013-02-13 09:12:00,
2013-02-13 03:17:00,38.1,36.1,29.39,South,191,0.0,0.0,34,0.00,,,0.00,meteohub,2013-02-13 09:17:00,
2013-02-13 03:22:00,37.9,36.1,29.39,South,191,0.0,0.0,34,0.00,,,0.00,meteohub,2013-02-13 09:22:00,
2013-02-13 03:27:00,37.9,36.1,29.39,South,191,0.0,0.0,34,0.00,,,0.00,meteohub,2013-02-13 09:27:00,
2013-02-13 03:32:00,37.9,36.1,29.39,South,191,3.0,0.0,34,0.00,,,0.00,meteohub,2013-02-13 09:32:00,
2013-02-13 03:37:00,38.1,36.0,29.39,South,191,0.0,3.0,34,0.00,,,0.00,meteohub,2013-02-13 09:37:00,
2013-02-13 03:42:00,38.1,36.0,29.39,South,191,0.0,3.0,34,0.00,,,0.00,meteohub,2013-02-13 09:42:00,
2013-02-13 03:47:00,37.9,35.8,29.39,South,191,0.0,3.0,34,0.00,,,0.00,meteohub,2013-02-13 09:47:00,
2013-02-13 03:52:00,37.9,35.8,29.39,South,191,0.0,0.0,34,0.00,,,0.00,meteohub,2013-02-13 09:52:00,
2013-02-13 03:58:00,37.9,35.8,29.39,South,191,0.0,0.0,34,0.00,,,0.00,meteohub,2013-02-13 09:58:00,
2013-02-13 04:03:00,37.9,35.6,29.36,South,191,0.0,0.0,34,0.00,,,0.00,meteohub,2013-02-13 10:03:00,
2013-02-13 04:08:00,37.9,35.6,29.36,South,191,0.0,0.0,34,0.00,,,0.00,meteohub,2013-02-13 10:08:00,
2013-02-13 04:13:00,37.9,35.4,29.36,South,191,0.0,0.0,34,0.00,,,0.00,meteohub,2013-02-13 10:13:00,
2013-02-13 04:18:00,37.9,35.4,29.36,South,191,0.0,0.0,34,0.00,,,0.00,meteohub,2013-02-13 10:18:00,
2013-02-13 04:23:00,37.9,35.4,29.36,South,191,0.0,0.0,34,0.00,,,0.00,meteohub,2013-02-13 10:23:00,
2013-02-13 04:28:00,37.9,35.2,29.36,South,191,0.0,0.0,34,0.00,,,0.00,meteohub,2013-02-13 10:28:00,
2013-02-13 04:33:00,37.9,35.2,29.36,South,191,0.0,0.0,34,0.00,,,0.00,meteohub,2013-02-13 10:33:00,
2013-02-13 04:38:00,37.9,35.2,29.36,South,191,0.0,0.0,34,0.00,,,0.00,meteohub,2013-02-13 10:38:00,
2013-02-13 04:43:00,38.1,35.2,29.36,South,191,0.0,0.0,34,0.00,,,0.00,meteohub,2013-02-13 10:43:00,
2013-02-13 04:49:00,38.1,35.1,29.36,South,191,0.0,0.0,34,0.00,,,0.00,meteohub,2013-02-13 10:49:00,
2013-02-13 04:54:00,38.1,35.1,29.36,South,191,0.0,0.0,34,0.00,,,0.00,meteohub,2013-02-13 10:54:00,
2013-02-13 04:59:00,38.1,34.9,29.36,South,191,0.0,0.0,34,0.00,,,0.00,meteohub,2013-02-13 10:59:00,
2013-02-13 05:04:00,38.1,34.9,29.36,South,191,0.0,0.0,34,0.00,,,0.00,meteohub,2013-02-13 11:04:00,
2013-02-13 05:09:00,38.1,34.9,29.36,South,191,0.0,0.0,34,0.00,,,0.00,meteohub,2013-02-13 11:09:00,
2013-02-13 05:14:00,38.1,34.9,29.36,South,191,0.0,0.0,34,0.00,,,0.00,meteohub,2013-02-13 11:14:00,
2013-02-13 05:19:00,38.1,34.7,29.36,South,191,0.0,0.0,34,0.00,,,0.00,meteohub,2013-02-13 11:19:00,
2013-02-13 05:24:00,38.1,34.7,29.36,South,191,0.0,0.0,34,0.00,,,0.00,meteohub,2013-02-13 11:24:00,
2013-02-13 05:29:00,38.1,34.7,29.36,South,191,0.0,0.0,34,0.00,,,0.00,meteohub,2013-02-13 11:29:00,
2013-02-13 05:34:00,38.1,34.7,29.36,South,191,0.0,0.0,34,0.00,,,0.00,meteohub,2013-02-13 11:34:00,
2013-02-13 05:39:00,38.1,34.7,29.36,South,191,0.0,0.0,34,0.00,,,0.00,meteohub,2013-02-13 11:39:00,
2013-02-13 05:45:00,38.1,34.5,29.36,South,191,0.0,0.0,34,0.00,,,0.00,meteohub,2013-02-13 11:45:00,
2013-02-13 05:50:00,38.1,34.5,29.36,South,191,0.0,0.0,34,0.00,,,0.00,meteohub,2013-02-13 11:50:00,
2013-02-13 05:55:00,37.9,34.5,29.36,South,191,0.0,0.0,34,0.00,,,0.00,meteohub,2013-02-13 11:55:00,
2013-02-13 06:00:00,37.9,34.5,29.36,South,191,0.0,0.0,34,0.00,,,0.00,meteohub,2013-02-13 12:00:00,
2013-02-13 06:05:00,37.9,34.3,29.36,South,191,0.0,0.0,34,0.00,,,0.00,meteohub,2013-02-13 12:05:00,
2013-02-13 06:10:00,37.9,34.3,29.36,South,191,0.0,0.0,34,0.00,,,0.00,meteohub,2013-02-13 12:10:00,
2013-02-13 06:15:00,37.9,34.3,29.36,South,191,0.0,0.0,34,0.00,,,0.00,meteohub,2013-02-13 12:15:00,
2013-02-13 06:20:00,37.8,34.3,29.36,South,191,0.0,0.0,34,0.00,,,0.00,meteohub,2013-02-13 12:20:00,
2013-02-13 06:25:00,37.8,34.3,29.36,South,191,0.0,0.0,34,0.00,,,0.00,meteohub,2013-02-13 12:25:00,
2013-02-13 06:30:00,37.6,34.2,29.36,South,191,0.0,0.0,34,0.00,,,0.00,meteohub,2013-02-13 12:30:00,
2013-02-13 06:35:00,37.6,34.2,29.36,South,191,0.0,0.0,34,0.00,,,0.00,meteohub,2013-02-13 12:35:00,
2013-02-13 06:40:00,37.6,34.2,29.36,South,191,0.0,0.0,34,0.00,,,0.00,meteohub,2013-02-13 12:40:00,
2013-02-13 06:46:00,37.4,34.3,29.36,South,191,0.0,0.0,34,0.00,,,0.00,meteohub,2013-02-13 12:46:00,
2013-02-13 06:51:00,37.4,35.4,29.36,South,191,0.0,0.0,34,0.00,,,0.00,meteohub,2013-02-13 12:51:00,
2013-02-13 06:56:00,37.4,36.3,29.36,South,191,0.0,0.0,34,0.00,,,0.00,meteohub,2013-02-13 12:56:00,
2013-02-13 07:01:00,37.4,36.9,29.36,South,191,0.0,0.0,34,0.00,,,0.00,meteohub,2013-02-13 13:01:00,
2013-02-13 07:06:00,37.4,36.7,29.36,South,191,0.0,0.0,34,0.00,,,0.00,meteohub,2013-02-13 13:06:00,
2013-02-13 07:11:00,37.4,37.2,29.36,South,191,0.0,0.0,34,0.00,,,0.00,meteohub,2013-02-13 13:11:00,
2013-02-13 07:16:00,37.4,37.4,29.36,South,191,0.0,0.0,34,0.00,,,0.00,meteohub,2013-02-13 13:16:00,
2013-02-13 07:21:00,37.4,37.2,29.39,South,191,0.0,0.0,34,0.00,,,0.00,meteohub,2013-02-13 13:21:00,
2013-02-13 07:26:00,37.6,37.2,29.39,South,191,0.0,0.0,34,0.00,,,0.00,meteohub,2013-02-13 13:26:00,
2013-02-13 07:31:00,37.6,37.2,29.39,South,191,0.0,0.0,34,0.00,,,0.00,meteohub,2013-02-13 13:31:00,
2013-02-13 07:36:00,37.9,37.0,29.39,South,191,0.0,0.0,34,0.00,,,0.00,meteohub,2013-02-13 13:36:00,
2013-02-13 07:42:00,37.9,37.0,29.39,South,191,0.0,0.0,34,0.00,,,0.00,meteohub,2013-02-13 13:42:00,
2013-02-13 07:47:00,38.1,37.2,29.39,South,191,0.0,0.0,34,0.00,,,0.00,meteohub,2013-02-13 13:47:00,
2013-02-13 07:52:00,38.3,37.0,29.39,South,191,0.0,0.0,34,0.00,,,0.00,meteohub,2013-02-13 13:52:00,
2013-02-13 07:57:00,38.5,37.0,29.39,South,191,0.0,0.0,34,0.00,,,0.00,meteohub,2013-02-13 13:57:00,
2013-02-13 08:02:00,38.5,37.4,29.39,South,191,0.0,0.0,34,0.00,,,0.00,meteohub,2013-02-13 14:02:00,
2013-02-13 08:07:00,38.5,37.2,29.39,South,191,0.0,0.0,34,0.00,,,0.00,meteohub,2013-02-13 14:07:00,
2013-02-13 08:12:00,38.5,37.2,29.39,South,191,0.0,0.0,34,0.00,,,0.00,meteohub,2013-02-13 14:12:00,
2013-02-13 08:17:00,38.5,37.6,29.39,South,191,0.0,0.0,34,0.00,,,0.00,meteohub,2013-02-13 14:17:00,
2013-02-13 08:22:00,38.7,38.5,29.39,SSW,202,0.0,3.0,34,0.00,,,0.00,meteohub,2013-02-13 14:22:00,
2013-02-13 08:27:00,38.7,38.5,29.39,SSW,202,2.0,3.0,34,0.00,,,0.00,meteohub,2013-02-13 14:27:00,
2013-02-13 08:32:00,38.8,38.5,29.39,SSW,202,2.0,3.0,34,0.00,,,0.00,meteohub,2013-02-13 14:32:00,
2013-02-13 08:37:00,38.8,38.7,29.39,SSW,202,0.0,4.0,34,0.00,,,0.00,meteohub,2013-02-13 14:37:00,
2013-02-13 08:43:00,38.8,37.8,29.39,SSW,203,3.0,4.0,33,0.00,,,0.00,meteohub,2013-02-13 14:43:00,
2013-02-13 08:48:00,38.8,38.5,29.39,SSW,203,0.0,4.0,34,0.00,,,0.00,meteohub,2013-02-13 14:48:00,
2013-02-13 08:53:00,39.0,38.7,29.39,SSW,202,3.0,4.0,34,0.00,,,0.00,meteohub,2013-02-13 14:53:00,
2013-02-13 08:58:00,39.6,38.5,29.39,SSW,203,0.0,4.0,34,0.00,,,0.00,meteohub,2013-02-13 14:58:00,
2013-02-13 09:03:00,40.3,38.3,29.39,SW,221,0.0,4.0,34,0.00,,,0.00,meteohub,2013-02-13 15:03:00,
2013-02-13 09:08:00,41.0,38.1,29.39,SW,221,0.0,4.0,34,0.00,,,0.00,meteohub,2013-02-13 15:08:00,
2013-02-13 09:13:00,41.7,37.9,29.39,South,189,4.0,4.0,34,0.00,,,0.00,meteohub,2013-02-13 15:13:00,
2013-02-13 09:18:00,42.1,38.1,29.39,WSW,248,3.0,5.0,34,0.00,,,0.00,meteohub,2013-02-13 15:18:00,
2013-02-13 09:23:00,42.4,38.1,29.39,SW,216,5.0,6.0,34,0.00,,,0.00,meteohub,2013-02-13 15:23:00,
2013-02-13 09:28:00,42.8,38.1,29.39,WSW,250,3.0,6.0,34,0.00,,,0.00,meteohub,2013-02-13 15:28:00,
2013-02-13 09:33:00,43.0,37.9,29.39,SW,222,5.0,5.0,34,0.00,,,0.00,meteohub,2013-02-13 15:33:00,
2013-02-13 09:39:00,43.5,37.8,29.39,SSW,202,4.0,5.0,34,0.00,,,0.00,meteohub,2013-02-13 15:39:00,
2013-02-13 09:44:00,43.7,37.6,29.39,South,189,4.0,5.0,34,0.00,,,0.00,meteohub,2013-02-13 15:44:00,
2013-02-13 09:49:00,44.1,37.6,29.39,SW,216,4.0,5.0,34,0.00,,,0.00,meteohub,2013-02-13 15:49:00,
2013-02-13 09:54:00,44.4,37.4,29.39,SSW,210,4.0,5.0,34,0.00,,,0.00,meteohub,2013-02-13 15:54:00,
2013-02-13 09:59:00,44.8,37.4,29.39,SW,214,0.0,5.0,34,0.00,,,0.00,meteohub,2013-02-13 15:59:00,
2013-02-13 10:04:00,45.1,37.4,29.36,SSW,200,5.0,6.0,34,0.00,,,0.00,meteohub,2013-02-13 16:04:00,
2013-02-13 10:09:00,45.5,37.4,29.36,WSW,251,3.0,6.0,34,0.00,,,0.00,meteohub,2013-02-13 16:09:00,
2013-02-13 10:14:00,46.0,37.4,29.36,SSW,205,0.0,6.0,34,0.00,,,0.00,meteohub,2013-02-13 16:14:00,
2013-02-13 10:19:00,46.4,37.4,29.36,SW,217,5.0,5.0,34,0.00,,,0.00,meteohub,2013-02-13 16:19:00,
2013-02-13 10:25:00,46.8,37.4,29.36,SSW,202,3.0,5.0,34,0.00,,,0.00,meteohub,2013-02-13 16:25:00,
2013-02-13 10:30:00,47.1,37.2,29.36,SW,233,3.0,5.0,34,0.00,,,0.00,meteohub,2013-02-13 16:30:00,
2013-02-13 10:35:00,47.5,37.2,29.36,SW,218,4.0,6.0,34,0.00,,,0.00,meteohub,2013-02-13 16:35:00,
2013-02-13 10:40:00,47.8,37.2,29.36,West,268,3.0,6.0,34,0.00,,,0.00,meteohub,2013-02-13 16:40:00,
2013-02-13 10:45:00,48.2,37.2,29.36,SSW,204,2.0,6.0,34,0.00,,,0.00,meteohub,2013-02-13 16:45:00,
2013-02-13 10:50:00,48.7,37.2,29.36,SSW,210,4.0,6.0,34,0.00,,,0.00,meteohub,2013-02-13 16:50:00,
2013-02-13 10:55:00,49.3,37.0,29.36,SW,222,4.0,6.0,34,0.00,,,0.00,meteohub,2013-02-13 16:55:00,
2013-02-13 11:00:00,49.3,37.0,29.36,SSW,206,4.0,5.0,34,0.00,,,0.00,meteohub,2013-02-13 17:00:00,
2013-02-13 11:05:00,49.3,37.0,29.36,SSW,193,3.0,6.0,34,0.00,,,0.00,meteohub,2013-02-13 17:05:00,
2013-02-13 11:10:00,49.8,37.0,29.36,West,274,4.0,6.0,34,0.00,,,0.00,meteohub,2013-02-13 17:10:00,
2013-02-13 11:15:00,49.6,37.0,29.36,WSW,254,3.0,6.0,34,0.00,,,0.00,meteohub,2013-02-13 17:15:00,
2013-02-13 11:21:00,49.8,37.0,29.36,SSW,213,4.0,6.0,34,0.00,,,0.00,meteohub,2013-02-13 17:21:00,
2013-02-13 11:26:00,50.5,37.0,29.36,SW,220,6.0,6.0,34,0.00,,,0.00,meteohub,2013-02-13 17:26:00,
2013-02-13 11:31:00,50.9,37.0,29.36,SW,219,0.0,6.0,34,0.00,,,0.00,meteohub,2013-02-13 17:31:00,
2013-02-13 11:36:00,51.3,37.0,29.36,SSW,210,3.0,6.0,34,0.00,,,0.00,meteohub,2013-02-13 17:36:00,
2013-02-13 11:41:00,51.6,37.0,29.36,SSW,208,3.0,6.0,34,0.00,,,0.00,meteohub,2013-02-13 17:41:00,
2013-02-13 11:46:00,51.4,37.0,29.36,SW,221,4.0,5.0,34,0.00,,,0.00,meteohub,2013-02-13 17:46:00,
2013-02-13 11:51:00,51.4,37.0,29.36,SSE,168,5.0,6.0,34,0.00,,,0.00,meteohub,2013-02-13 17:51:00,
2013-02-13 11:56:00,51.4,37.0,29.36,South,180,2.0,6.0,34,0.00,,,0.00,meteohub,2013-02-13 17:56:00,
2013-02-13 12:01:00,51.6,37.0,29.36,SW,215,4.0,6.0,34,0.00,,,0.00,meteohub,2013-02-13 18:01:00,
2013-02-13 12:06:00,51.8,37.0,29.36,SW,218,6.0,6.0,34,0.00,,,0.00,meteohub,2013-02-13 18:06:00,
2013-02-13 12:12:00,52.0,37.2,29.36,SW,232,4.0,6.0,34,0.00,,,0.00,meteohub,2013-02-13 18:12:00,
2013-02-13 12:17:00,52.5,37.6,29.36,West,267,5.0,7.0,34,0.00,,,0.00,meteohub,2013-02-13 18:17:00,
2013-02-13 12:22:00,52.9,37.8,29.34,WSW,252,3.0,8.0,34,0.00,,,0.00,meteohub,2013-02-13 18:22:00,
2013-02-13 12:27:00,53.2,37.8,29.34,SW,221,3.0,8.0,34,0.00,,,0.00,meteohub,2013-02-13 18:27:00,
2013-02-13 12:32:00,53.8,37.6,29.34,West,259,3.0,8.0,34,0.00,,,0.00,meteohub,2013-02-13 18:32:00,
2013-02-13 12:37:00,54.0,37.6,29.34,NNW,336,4.0,8.0,34,0.00,,,0.00,meteohub,2013-02-13 18:37:00,
2013-02-13 12:42:00,54.3,37.4,29.34,SSW,203,3.0,8.0,34,0.00,,,0.00,meteohub,2013-02-13 18:42:00,
2013-02-13 12:47:00,54.5,37.4,29.34,NW,315,5.0,8.0,34,0.00,,,0.00,meteohub,2013-02-13 18:47:00,
2013-02-13 12:52:00,54.5,37.4,29.34,SW,231,6.0,8.0,34,0.00,,,0.00,meteohub,2013-02-13 18:52:00,
2013-02-13 12:57:00,54.7,37.4,29.34,SSW,204,6.0,7.0,34,0.00,,,0.00,meteohub,2013-02-13 18:57:00,
2013-02-13 13:03:00,54.9,37.4,29.34,WSW,240,3.0,7.0,34,0.00,,,0.00,meteohub,2013-02-13 19:03:00,
2013-02-13 13:08:00,55.2,37.4,29.34,SW,216,4.0,9.0,34,0.00,,,0.00,meteohub,2013-02-13 19:08:00,
2013-02-13 13:13:00,55.2,37.4,29.34,West,275,8.0,9.0,34,0.00,,,0.00,meteohub,2013-02-13 19:13:00,
2013-02-13 13:18:00,55.2,37.4,29.31,West,263,8.0,9.0,34,0.00,,,0.00,meteohub,2013-02-13 19:18:00,
2013-02-13 13:23:00,55.2,37.4,29.31,SSW,206,3.0,9.0,34,0.00,,,0.00,meteohub,2013-02-13 19:23:00,
2013-02-13 13:28:00,55.4,37.4,29.31,SSW,208,5.0,9.0,34,0.00,,,0.00,meteohub,2013-02-13 19:28:00,
2013-02-13 13:33:00,55.4,37.4,29.31,SW,231,4.0,9.0,34,0.00,,,0.00,meteohub,2013-02-13 19:33:00,
2013-02-13 13:38:00,55.8,37.4,29.31,WSW,256,6.0,9.0,34,0.00,,,0.00,meteohub,2013-02-13 19:38:00,
2013-02-13 13:43:00,55.9,37.4,29.31,South,191,5.0,8.0,34,0.00,,,0.00,meteohub,2013-02-13 19:43:00,
2013-02-13 13:48:00,56.1,37.6,29.31,SW,220,3.0,7.0,34,0.00,,,0.00,meteohub,2013-02-13 19:48:00,
2013-02-13 13:53:00,56.1,37.6,29.31,SW,234,4.0,8.0,34,0.00,,,0.00,meteohub,2013-02-13 19:53:00,
2013-02-13 13:59:00,56.1,37.6,29.31,North,0,3.0,8.0,34,0.00,,,0.00,meteohub,2013-02-13 19:59:00,
2013-02-13 14:04:00,56.3,37.6,29.31,WNW,300,3.0,8.0,34,0.00,,,0.00,meteohub,2013-02-13 20:04:00,
2013-02-13 14:09:00,56.3,37.6,29.31,SW,227,5.0,8.0,34,0.00,,,0.00,meteohub,2013-02-13 20:09:00,
2013-02-13 14:14:00,56.5,37.6,29.31,West,265,2.0,7.0,34,0.00,,,0.00,meteohub,2013-02-13 20:14:00,
2013-02-13 14:19:00,56.5,37.6,29.31,North,0,3.0,8.0,34,0.00,,,0.00,meteohub,2013-02-13 20:19:00,
2013-02-13 14:24:00,56.5,37.6,29.31,SSW,213,3.0,8.0,34,0.00,,,0.00,meteohub,2013-02-13 20:24:00,
2013-02-13 14:29:00,56.5,38.5,29.31,SW,214,4.0,8.0,35,0.00,,,0.00,meteohub,2013-02-13 20:29:00,
2013-02-13 14:34:00,56.3,38.5,29.31,NW,308,5.0,8.0,35,0.00,,,0.00,meteohub,2013-02-13 20:34:00,
2013-02-13 14:39:00,55.8,38.5,29.31,SW,214,3.0,8.0,35,0.00,,,0.00,meteohub,2013-02-13 20:39:00,
2013-02-13 14:44:00,55.8,38.5,29.31,SSW,207,4.0,11.0,35,0.00,,,0.00,meteohub,2013-02-13 20:44:00,
2013-02-13 14:49:00,55.8,38.5,29.31,NNW,343,4.0,11.0,35,0.00,,,0.00,meteohub,2013-02-13 20:49:00,
2013-02-13 14:55:00,55.6,38.5,29.31,SW,227,5.0,9.0,35,0.00,,,0.00,meteohub,2013-02-13 20:55:00,
2013-02-13 15:00:00,55.4,38.5,29.31,SSW,192,6.0,8.0,35,0.00,,,0.00,meteohub,2013-02-13 21:00:00,
2013-02-13 15:05:00,55.4,38.7,29.31,SSW,205,4.0,8.0,35,0.00,,,0.00,meteohub,2013-02-13 21:05:00,
2013-02-13 15:10:00,55.4,38.7,29.31,SSW,207,4.0,6.0,35,0.00,,,0.00,meteohub,2013-02-13 21:10:00,
2013-02-13 15:15:00,55.4,38.7,29.31,SW,236,6.0,8.0,35,0.00,,,0.00,meteohub,2013-02-13 21:15:00,
2013-02-13 15:20:00,55.2,38.7,29.31,South,175,5.0,8.0,35,0.00,,,0.00,meteohub,2013-02-13 21:20:00,
2013-02-13 15:25:00,55.2,38.8,29.31,WSW,251,3.0,8.0,35,0.00,,,0.00,meteohub,2013-02-13 21:25:00,
2013-02-13 15:30:00,55.2,38.8,29.31,NW,314,3.0,8.0,35,0.00,,,0.00,meteohub,2013-02-13 21:30:00,
2013-02-13 15:35:00,55.2,39.2,29.31,SW,218,3.0,9.0,35,0.00,,,0.00,meteohub,2013-02-13 21:35:00,
2013-02-13 15:40:00,55.2,39.2,29.31,WSW,248,3.0,9.0,35,0.00,,,0.00,meteohub,2013-02-13 21:40:00,
2013-02-13 15:46:00,55.2,38.7,29.31,SSW,208,3.0,9.0,34,0.00,,,0.00,meteohub,2013-02-13 21:46:00,
2013-02-13 15:51:00,55.2,38.7,29.31,South,182,4.0,8.0,34,0.00,,,0.00,meteohub,2013-02-13 21:51:00,
2013-02-13 15:56:00,55.0,38.7,29.31,SW,235,6.0,8.0,34,0.00,,,0.00,meteohub,2013-02-13 21:56:00,
2013-02-13 16:01:00,55.0,38.7,29.31,WNW,296,3.0,8.0,34,0.00,,,0.00,meteohub,2013-02-13 22:01:00,
2013-02-13 16:06:00,54.9,38.7,29.31,WNW,298,4.0,6.0,34,0.00,,,0.00,meteohub,2013-02-13 22:06:00,
2013-02-13 16:11:00,54.7,38.7,29.31,SW,222,6.0,6.0,34,0.00,,,0.00,meteohub,2013-02-13 22:11:00,
2013-02-13 16:16:00,54.5,38.7,29.31,West,268,3.0,6.0,34,0.00,,,0.00,meteohub,2013-02-13 22:16:00,
2013-02-13 16:21:00,54.5,38.7,29.31,North,357,5.0,7.0,34,0.00,,,0.00,meteohub,2013-02-13 22:21:00,
2013-02-13 16:26:00,54.3,38.7,29.31,WNW,293,4.0,8.0,34,0.00,,,0.00,meteohub,2013-02-13 22:26:00,
2013-02-13 16:31:00,54.1,38.7,29.31,SSE,168,3.0,8.0,34,0.00,,,0.00,meteohub,2013-02-13 22:31:00,
2013-02-13 16:36:00,54.1,38.7,29.31,SW,232,4.0,8.0,34,0.00,,,0.00,meteohub,2013-02-13 22:36:00,
2013-02-13 16:41:00,54.0,38.8,29.31,SSW,194,4.0,11.0,34,0.00,,,0.00,meteohub,2013-02-13 22:41:00,
2013-02-13 16:47:00,53.8,38.8,29.31,West,264,2.0,11.0,34,0.00,,,0.00,meteohub,2013-02-13 22:47:00,
2013-02-13 16:52:00,53.8,38.7,29.31,WNW,287,4.0,11.0,34,0.00,,,0.00,meteohub,2013-02-13 22:52:00,
2013-02-13 16:57:00,53.2,38.7,29.31,SW,233,3.0,8.0,34,0.00,,,0.00,meteohub,2013-02-13 22:57:00,
2013-02-13 17:02:00,52.7,38.7,29.31,West,274,2.0,8.0,34,0.00,,,0.00,meteohub,2013-02-13 23:02:00,
2013-02-13 17:07:00,52.3,38.7,29.31,West,260,5.0,8.0,34,0.00,,,0.00,meteohub,2013-02-13 23:07:00,
2013-02-13 17:12:00,52.0,38.7,29.31,SSW,212,3.0,8.0,34,0.00,,,0.00,meteohub,2013-02-13 23:12:00,
2013-02-13 17:17:00,51.6,38.7,29.31,WNW,291,3.0,6.0,34,0.00,,,0.00,meteohub,2013-02-13 23:17:00,
2013-02-13 17:22:00,51.4,39.2,29.31,WSW,248,0.0,6.0,35,0.00,,,0.00,meteohub,2013-02-13 23:22:00,
2013-02-13 17:27:00,51.3,38.7,29.31,SSW,211,4.0,6.0,34,0.00,,,0.00,meteohub,2013-02-13 23:27:00,
2013-02-13 17:33:00,50.9,39.2,29.31,SSW,201,2.0,6.0,35,0.00,,,0.00,meteohub,2013-02-13 23:33:00,
2013-02-13 17:38:00,50.5,39.2,29.31,West,266,2.0,6.0,35,0.00,,,0.00,meteohub,2013-02-13 23:38:00,
2013-02-13 17:43:00,50.2,39.2,29.31,West,263,3.0,5.0,35,0.00,,,0.00,meteohub,2013-02-13 23:43:00,
2013-02-13 17:48:00,50.0,39.2,29.31,West,275,0.0,5.0,35,0.00,,,0.00,meteohub,2013-02-13 23:48:00,
2013-02-13 17:53:00,49.5,39.2,29.31,SSW,210,0.0,4.0,35,0.00,,,0.00,meteohub,2013-02-13 23:53:00,
2013-02-13 17:58:00,49.1,39.2,29.31,SSW,206,0.0,4.0,35,0.00,,,0.00,meteohub,2013-02-13 23:58:00,
2013-02-13 18:03:00,48.9,39.2,29.34,SSW,195,0.0,4.0,35,0.00,,,0.00,meteohub,2013-02-14 00:03:00,
2013-02-13 18:08:00,48.7,39.2,29.34,West,265,4.0,4.0,35,0.00,,,0.00,meteohub,2013-02-14 00:08:00,
2013-02-13 18:13:00,48.6,39.2,29.34,SW,226,0.0,4.0,35,0.00,,,0.00,meteohub,2013-02-14 00:13:00,
2013-02-13 18:19:00,48.2,39.2,29.34,West,264,0.0,4.0,35,0.00,,,0.00,meteohub,2013-02-14 00:19:00,
2013-02-13 18:24:00,47.8,39.4,29.34,West,274,0.0,4.0,35,0.00,,,0.00,meteohub,2013-02-14 00:24:00,
2013-02-13 18:29:00,47.5,39.4,29.34,West,274,0.0,3.0,35,0.00,,,0.00,meteohub,2013-02-14 00:29:00,
2013-02-13 18:34:00,47.1,39.4,29.34,West,274,0.0,3.0,35,0.00,,,0.00,meteohub,2013-02-14 00:34:00,
2013-02-13 18:39:00,46.9,39.4,29.34,West,274,0.0,0.0,35,0.00,,,0.00,meteohub,2013-02-14 00:39:00,
2013-02-13 18:44:00,46.6,39.4,29.34,West,274,0.0,0.0,35,0.00,,,0.00,meteohub,2013-02-14 00:44:00,
2013-02-13 18:49:00,46.4,39.4,29.34,West,274,0.0,0.0,35,0.00,,,0.00,meteohub,2013-02-14 00:49:00,
2013-02-13 18:55:00,45.9,39.2,29.34,WSW,245,0.0,0.0,35,0.00,,,0.00,meteohub,2013-02-14 00:55:00,
2013-02-13 19:00:00,45.9,39.2,29.34,WSW,238,0.0,0.0,35,0.00,,,0.00,meteohub,2013-02-14 01:00:00,
2013-02-13 19:05:00,45.5,39.2,29.34,South,169,0.0,0.0,35,0.00,,,0.00,meteohub,2013-02-14 01:05:00,
2013-02-13 19:10:00,44.8,39.0,29.34,SSE,154,0.0,0.0,35,0.00,,,0.00,meteohub,2013-02-14 01:10:00,
2013-02-13 19:15:00,44.2,39.0,29.34,SSE,154,0.0,0.0,35,0.00,,,0.00,meteohub,2013-02-14 01:15:00,
2013-02-13 19:20:00,43.7,39.0,29.34,SSE,154,0.0,0.0,35,0.00,,,0.00,meteohub,2013-02-14 01:20:00,
2013-02-13 19:25:00,43.5,39.0,29.34,SSE,154,0.0,0.0,35,0.00,,,0.00,meteohub,2013-02-14 01:25:00,
2013-02-13 19:30:00,43.5,38.8,29.34,SSW,193,0.0,0.0,35,0.00,,,0.00,meteohub,2013-02-14 01:30:00,
2013-02-13 19:35:00,43.5,38.8,29.34,South,190,0.0,0.0,35,0.00,,,0.00,meteohub,2013-02-14 01:35:00,
2013-02-13 19:40:00,43.7,38.8,29.34,SSW,212,0.0,4.0,35,0.00,,,0.00,meteohub,2013-02-14 01:40:00,
2013-02-13 19:46:00,44.6,39.2,29.34,SW,216,3.0,5.0,35,0.00,,,0.00,meteohub,2013-02-14 01:46:00,
2013-02-13 19:51:00,45.1,39.4,29.34,SSW,209,0.0,5.0,35,0.00,,,0.00,meteohub,2013-02-14 01:51:00,
2013-02-13 19:56:00,45.3,39.2,29.34,SW,215,2.0,5.0,35,0.00,,,0.00,meteohub,2013-02-14 01:56:00,
2013-02-13 20:01:00,45.5,39.2,29.34,SSW,205,3.0,5.0,35,0.00,,,0.00,meteohub,2013-02-14 02:01:00,
2013-02-13 20:06:00,45.5,39.2,29.34,SSW,196,0.0,5.0,35,0.00,,,0.00,meteohub,2013-02-14 02:06:00,
2013-02-13 20:11:00,45.1,39.2,29.34,SSW,212,0.0,5.0,35,0.00,,,0.00,meteohub,2013-02-14 02:11:00,
2013-02-13 20:16:00,45.0,39.6,29.34,SSW,204,0.0,5.0,35,0.00,,,0.00,meteohub,2013-02-14 02:16:00,
2013-02-13 20:21:00,44.8,39.0,29.36,SSW,203,4.0,5.0,34,0.00,,,0.00,meteohub,2013-02-14 02:21:00,
2013-02-13 20:26:00,44.6,38.8,29.36,SSW,213,3.0,4.0,34,0.00,,,0.00,meteohub,2013-02-14 02:26:00,
2013-02-13 20:31:00,44.6,38.8,29.36,SSW,193,3.0,6.0,34,0.00,,,0.00,meteohub,2013-02-14 02:31:00,
2013-02-13 20:36:00,44.6,39.0,29.36,SW,223,3.0,6.0,34,0.00,,,0.00,meteohub,2013-02-14 02:36:00,
2013-02-13 20:42:00,44.4,39.4,29.36,SSW,201,3.0,5.0,34,0.00,,,0.00,meteohub,2013-02-14 02:42:00,
2013-02-13 20:47:00,44.2,39.4,29.36,SSW,208,3.0,5.0,34,0.00,,,0.00,meteohub,2013-02-14 02:47:00,
2013-02-13 20:52:00,43.9,39.2,29.36,SSW,201,3.0,4.0,34,0.00,,,0.00,meteohub,2013-02-14 02:52:00,
2013-02-13 20:57:00,43.7,39.0,29.36,South,191,3.0,4.0,34,0.00,,,0.00,meteohub,2013-02-14 02:57:00,
2013-02-13 21:02:00,43.5,39.4,29.36,SSW,209,0.0,4.0,34,0.00,,,0.00,meteohub,2013-02-14 03:02:00,
2013-02-13 21:07:00,43.3,39.6,29.36,SW,215,3.0,4.0,34,0.00,,,0.00,meteohub,2013-02-14 03:07:00,
2013-02-13 21:12:00,43.2,39.6,29.36,SSW,202,0.0,4.0,34,0.00,,,0.00,meteohub,2013-02-14 03:12:00,
2013-02-13 21:17:00,43.0,39.4,29.36,SSW,213,0.0,4.0,34,0.00,,,0.00,meteohub,2013-02-14 03:17:00,
2013-02-13 21:22:00,42.8,39.4,29.36,SSE,159,3.0,4.0,34,0.00,,,0.00,meteohub,2013-02-14 03:22:00,
2013-02-13 21:27:00,42.4,39.2,29.36,SSW,204,0.0,4.0,34,0.00,,,0.00,meteohub,2013-02-14 03:27:00,
2013-02-13 21:32:00,42.4,39.4,29.36,South,184,3.0,4.0,34,0.00,,,0.00,meteohub,2013-02-14 03:32:00,
2013-02-13 21:38:00,42.3,39.6,29.36,SSE,168,2.0,4.0,34,0.00,,,0.00,meteohub,2013-02-14 03:38:00,
2013-02-13 21:43:00,42.1,39.6,29.36,SSE,152,0.0,4.0,34,0.00,,,0.00,meteohub,2013-02-14 03:43:00,
2013-02-13 21:48:00,41.7,39.4,29.36,SSW,199,0.0,3.0,34,0.00,,,0.00,meteohub,2013-02-14 03:48:00,
2013-02-13 21:53:00,41.5,39.2,29.36,SSW,211,0.0,3.0,34,0.00,,,0.00,meteohub,2013-02-14 03:53:00,
2013-02-13 21:58:00,41.0,39.4,29.36,SSW,211,0.0,3.0,34,0.00,,,0.00,meteohub,2013-02-14 03:58:00,
2013-02-13 22:03:00,41.0,39.9,29.36,South,186,3.0,0.0,34,0.00,,,0.00,meteohub,2013-02-14 04:03:00,
2013-02-13 22:08:00,41.0,39.9,29.36,SW,219,3.0,4.0,34,0.00,,,0.00,meteohub,2013-02-14 04:08:00,
2013-02-13 22:13:00,41.0,39.7,29.36,SSW,195,2.0,4.0,34,0.00,,,0.00,meteohub,2013-02-14 04:13:00,
2013-02-13 22:19:00,41.0,39.4,29.36,SSW,194,0.0,4.0,34,0.00,,,0.00,meteohub,2013-02-14 04:19:00,
2013-02-13 22:24:00,41.2,39.4,29.36,South,190,0.0,5.0,34,0.00,,,0.00,meteohub,2013-02-14 04:24:00,
2013-02-13 22:29:00,41.2,39.7,29.36,SW,214,3.0,5.0,34,0.00,,,0.00,meteohub,2013-02-14 04:29:00,
2013-02-13 22:34:00,41.2,39.7,29.36,SW,214,3.0,5.0,34,0.00,,,0.00,meteohub,2013-02-14 04:34:00,
2013-02-13 22:39:00,41.2,39.6,29.36,SSW,209,3.0,4.0,34,0.00,,,0.00,meteohub,2013-02-14 04:39:00,
2013-02-13 22:44:00,41.0,39.4,29.36,SW,218,3.0,4.0,34,0.00,,,0.00,meteohub,2013-02-14 04:44:00,
2013-02-13 22:49:00,41.0,39.2,29.36,SW,214,3.0,4.0,34,0.00,,,0.00,meteohub,2013-02-14 04:49:00,
2013-02-13 22:54:00,40.8,39.6,29.36,SW,221,4.0,4.0,34,0.00,,,0.00,meteohub,2013-02-14 04:54:00,
2013-02-13 22:59:00,40.8,39.6,29.36,SSW,206,0.0,4.0,34,0.00,,,0.00,meteohub,2013-02-14 04:59:00,
2013-02-13 23:00:00,40.8,39.6,29.36,SSW,206,3.0,4.0,34,0.00,,,0.00,meteohub,2013-02-14 05:00:00,
2013-02-13 23:01:00,40.8,39.6,29.36,SSW,207,4.0,4.0,34,0.00,,,0.00,meteohub,2013-02-14 05:01:00,
2013-02-13 23:02:00,40.8,39.6,29.36,SSW,207,2.0,4.0,34,0.00,,,0.00,meteohub,2013-02-14 05:02:00,
2013-02-13 23:07:00,40.6,39.4,29.36,SSE,167,3.0,4.0,34,0.00,,,0.00,meteohub,2013-02-14 05:07:00,
2013-02-13 23:12:00,40.6,39.4,29.36,SSW,209,0.0,4.0,34,0.00,,,0.00,meteohub,2013-02-14 05:12:00,
2013-02-13 23:17:00,40.6,39.6,29.36,SSW,206,3.0,4.0,34,0.00,,,0.00,meteohub,2013-02-14 05:17:00,
2013-02-13 23:22:00,41.0,39.9,29.36,SW,231,0.0,4.0,34,0.00,,,0.00,meteohub,2013-02-14 05:22:00,
2013-02-13 23:27:00,41.0,39.9,29.36,WSW,241,0.0,5.0,34,0.00,,,0.00,meteohub,2013-02-14 05:27:00,
2013-02-13 23:32:00,41.0,39.7,29.36,SSW,209,5.0,5.0,34,0.00,,,0.00,meteohub,2013-02-14 05:32:00,
2013-02-13 23:38:00,41.0,39.4,29.36,SSW,200,4.0,4.0,34,0.00,,,0.00,meteohub,2013-02-14 05:38:00,
2013-02-13 23:43:00,41.0,39.4,29.36,SW,227,4.0,5.0,34,0.00,,,0.00,meteohub,2013-02-14 05:43:00,
2013-02-13 23:48:00,41.0,39.6,29.36,South,172,0.0,5.0,34,0.00,,,0.00,meteohub,2013-02-14 05:48:00,
2013-02-13 23:53:00,40.6,39.6,29.36,South,183,0.0,4.0,34,0.00,,,0.00,meteohub,2013-02-14 05:53:00,
2013-02-13 23:58:00,40.1,39.4,29.36,East,86,0.0,4.0,34,0.00,,,0.00,meteohub,2013-02-14 05:58:00,